Statesville, NC

6:58 AM EDT on July 24, 2017 (GMT -0400)
Statesville Municipal

Weather History for KSVH - November, 2013

Change the Weather History Date:

Friday, November 8, 2013

  Actual Average (KHKY) Record (KHKY)
Temperature  
Mean Temperature 44 °F -  
Max Temperature 57 °F 62 °F 77 °F (2005)
Min Temperature 31 °F 39 °F 23 °F (1971)
Degree Days  
Heating Degree Days 21    
Moisture  
Dew Point 24 °F    
Average Humidity 50    
Maximum Humidity 85    
Minimum Humidity 22    
Precipitation  
Precipitation 0.00 in - - ()
Sea Level Pressure  
Sea Level Pressure 30.25 in    
Wind  
Wind Speed 4 mph (NNW)    
Max Wind Speed 10 mph    
Max Gust Speed 16 mph    
Visibility 10 miles    
Events      
Averages and records for this station are not official NWS values.
T = Trace of Precipitation, MM = Missing Value Source: NWS Daily Summary

Daily Weather History Graph

Daily Weather History Graph

Search for Another Location

Airport or City:

Trip Planner

Search our weather history database for the weather conditions in past years. The results will help you decide how hot, cold, wet, or windy it might be!

Date:

Astronomy

Nov. 08, 2013 Rise Set
Actual Time 6:53 AM EST 5:21 PM EST
Civil Twilight 6:26 AM EST 5:48 PM EST
Nautical Twilight 5:55 AM EST 6:19 PM EST
Astronomical Twilight 5:25 AM EST 6:49 PM EST
Moon 11:47 AM EST (11/8) 10:40 PM EST (11/8)
Length of Visible Light 11h 22m
Length of Day
10h 28m
Waxing Crescent, 33% of the Moon is Illuminated
Nov 8
Waxing Crescent
Nov 10
First Quarter
Nov 17
Full
Nov 25
Last Quarter
Dec 2
New

Hourly Weather History & Observations

Time (EST) Temp. Windchill Dew Point Humidity Pressure Visibility Wind Dir Wind Speed Gust Speed Precip Events Conditions
12:15 AM 41.9 °F 40.0 °F 30.7 °F 65% 30.16 in 10.0 mi North 3.5 mph - N/A   Clear
12:35 AM 42.3 °F 38.6 °F 30.2 °F 62% 30.16 in 10.0 mi NNW 5.8 mph - N/A   Clear
12:55 AM 42.6 °F 38.4 °F 29.8 °F 61% 30.17 in 10.0 mi NNW 6.9 mph - N/A   Clear
1:15 AM 42.4 °F 38.1 °F 29.3 °F 60% 30.17 in 10.0 mi NNW 6.9 mph - N/A   Clear
1:35 AM 41.9 °F 39.0 °F 29.1 °F 61% 30.18 in 10.0 mi NNW 4.6 mph - N/A   Clear
1:55 AM 41.9 °F 40.0 °F 28.8 °F 60% 30.18 in 10.0 mi NNW 3.5 mph - N/A   Clear
2:15 AM 41.9 °F 40.0 °F 28.2 °F 58% 30.18 in 10.0 mi North 3.5 mph - N/A   Clear
2:35 AM 41.4 °F 37.6 °F 28.0 °F 59% 30.19 in 10.0 mi North 5.8 mph - N/A   Clear
2:55 AM 40.6 °F 38.6 °F 27.9 °F 60% 30.20 in 10.0 mi NNE 3.5 mph - N/A   Clear
3:15 AM 39.2 °F 37.0 °F 28.0 °F 64% 30.20 in 10.0 mi ENE 3.5 mph - N/A   Clear
3:35 AM 38.8 °F - 28.2 °F 66% 30.20 in 10.0 mi Calm Calm - N/A   Clear
3:55 AM 39.4 °F 36.1 °F 27.5 °F 62% 30.21 in 10.0 mi North 4.6 mph - N/A   Clear
4:15 AM 39.2 °F - 27.3 °F 62% 30.21 in 10.0 mi Calm Calm - N/A   Clear
4:35 AM 38.1 °F 35.7 °F 27.5 °F 66% 30.21 in 10.0 mi North 3.5 mph - N/A   Clear
4:55 AM 37.0 °F - 26.8 °F 66% 30.22 in 10.0 mi Calm Calm - N/A   Clear
5:15 AM 32.4 °F - 28.4 °F 85% 30.22 in 10.0 mi Calm Calm - N/A   Clear
5:35 AM 31.6 °F - 27.3 °F 84% 30.23 in 10.0 mi Calm Calm - N/A   Clear
5:55 AM 33.4 °F - 27.1 °F 78% 30.23 in 10.0 mi Calm Calm - N/A   Clear
6:15 AM 32.4 °F - 26.6 °F 79% 30.24 in 10.0 mi Calm Calm - N/A   Clear
6:35 AM 31.8 °F - 26.2 °F 80% 30.24 in 10.0 mi Calm Calm - N/A   Clear
6:55 AM 37.2 °F 33.6 °F 25.5 °F 63% 30.25 in 10.0 mi North 4.6 mph - N/A   Clear
7:15 AM 34.9 °F 32.0 °F 25.7 °F 69% 30.26 in 10.0 mi NNW 3.5 mph - N/A   Clear
7:35 AM 37.4 °F 33.8 °F 25.9 °F 63% 30.26 in 10.0 mi NW 4.6 mph - N/A   Clear
7:55 AM 36.7 °F - 27.7 °F 70% 30.27 in 10.0 mi Calm Calm - N/A   Clear
8:15 AM 38.3 °F - 30.2 °F 73% 30.28 in 10.0 mi Calm Calm - N/A   Clear
8:35 AM 41.4 °F - 28.2 °F 60% 30.28 in 10.0 mi Calm Calm - N/A   Clear
8:55 AM 43.7 °F - 28.6 °F 55% 30.29 in 10.0 mi Calm Calm - N/A   Clear
9:15 AM 45.3 °F - 28.8 °F 52% 30.29 in 10.0 mi Calm Calm - N/A   Clear
9:35 AM 46.6 °F - 26.8 °F 46% 30.29 in 10.0 mi West 5.8 mph - N/A   Clear
9:55 AM 48.2 °F - 26.6 °F 43% 30.30 in 10.0 mi WNW 6.9 mph - N/A   Clear
10:15 AM 49.6 °F - 25.9 °F 40% 30.30 in 10.0 mi WNW 9.2 mph - N/A   Clear
10:35 AM 50.4 °F - 24.8 °F 37% 30.30 in 10.0 mi WNW 8.1 mph - N/A   Clear
10:55 AM 50.0 °F - 23.0 °F 35% 30.29 in 10.0 mi North 6.9 mph - N/A   Clear
11:15 AM 51.3 °F - 23.7 °F 34% 30.30 in 10.0 mi North 5.8 mph - N/A   Clear
11:35 AM 51.8 °F - 23.5 °F 33% 30.29 in 10.0 mi NNE 8.1 mph - N/A   Clear
11:55 AM 51.6 °F - 22.5 °F 32% 30.28 in 10.0 mi WNW 4.6 mph - N/A   Clear
12:15 PM 53.2 °F - 23.5 °F 32% 30.27 in 10.0 mi NNW 8.1 mph 16.1 mph N/A   Clear
12:35 PM 54.9 °F - 22.3 °F 28% 30.26 in 10.0 mi NNW 10.4 mph - N/A   Clear
12:55 PM 55.6 °F - 20.8 °F 26% 30.25 in 10.0 mi West 4.6 mph - N/A   Clear
1:15 PM 55.8 °F - 19.8 °F 25% 30.24 in 10.0 mi North 4.6 mph - N/A   Clear
1:35 PM 56.3 °F - 20.3 °F 25% 30.23 in 10.0 mi North 5.8 mph - N/A   Clear
1:55 PM 57.9 °F - 21.7 °F 25% 30.23 in 10.0 mi North 9.2 mph - N/A   Clear
2:15 PM 56.5 °F - 19.9 °F 24% 30.23 in 10.0 mi WNW 4.6 mph - N/A   Clear
2:35 PM 57.7 °F - 19.2 °F 22% 30.23 in 10.0 mi West 6.9 mph - N/A   Clear
2:55 PM 56.8 °F - 17.6 °F 22% 30.22 in 10.0 mi North 10.4 mph - N/A   Clear
3:15 PM 57.6 °F - 18.9 °F 22% 30.23 in 10.0 mi NNW 5.8 mph - N/A   Clear
3:35 PM 56.5 °F - 17.2 °F 22% 30.23 in 10.0 mi North 9.2 mph - N/A   Clear
3:55 PM 55.8 °F - 17.6 °F 22% 30.23 in 10.0 mi North 6.9 mph - N/A   Clear
4:15 PM 55.0 °F - 17.4 °F 23% 30.23 in 10.0 mi North 8.1 mph - N/A   Clear
4:35 PM 54.3 °F - 18.0 °F 24% 30.24 in 10.0 mi North 6.9 mph - N/A   Clear
4:55 PM 53.2 °F - 17.6 °F 25% 30.24 in 10.0 mi North 6.9 mph - N/A   Clear
5:15 PM 52.0 °F - 17.6 °F 26% 30.25 in 10.0 mi North 5.8 mph - N/A   Clear
5:35 PM 51.1 °F - 17.8 °F 27% 30.25 in 10.0 mi North 4.6 mph - N/A   Clear
5:55 PM 49.6 °F - 18.3 °F 29% 30.25 in 10.0 mi North 5.8 mph - N/A   Clear
6:15 PM 49.1 °F - 18.9 °F 30% 30.26 in 10.0 mi North 3.5 mph - N/A   Clear
6:35 PM 48.0 °F - 19.6 °F 32% 30.26 in 10.0 mi North 3.5 mph - N/A   Clear
6:55 PM 47.3 °F - 19.9 °F 34% 30.27 in 10.0 mi Calm Calm - N/A   Clear
7:15 PM 42.1 °F - 21.2 °F 43% 30.27 in 10.0 mi Calm Calm - N/A   Clear
7:35 PM 44.1 °F - 21.4 °F 41% 30.28 in 10.0 mi Calm Calm - N/A   Clear
7:55 PM 39.0 °F - 22.6 °F 52% 30.28 in 10.0 mi Calm Calm - N/A   Clear
8:15 PM 40.1 °F - 23.0 °F 51% 30.28 in 10.0 mi Calm Calm - N/A   Clear
8:35 PM 38.1 °F - 23.4 °F 55% 30.29 in 10.0 mi Calm Calm - N/A   Clear
8:55 PM 35.8 °F - 24.4 °F 63% 30.30 in 10.0 mi Calm Calm - N/A   Clear
9:15 PM 38.3 °F - 24.1 °F 57% 30.30 in 10.0 mi Calm Calm - N/A   Clear
9:35 PM 38.5 °F - 23.7 °F 55% 30.30 in 10.0 mi Calm Calm - N/A   Clear
9:55 PM 32.9 °F - 25.7 °F 75% 30.31 in 10.0 mi Calm Calm - N/A   Clear
10:15 PM 35.4 °F - 25.5 °F 67% 30.31 in 10.0 mi Calm Calm - N/A   Clear
10:35 PM 33.1 °F - 26.2 °F 76% 30.31 in 10.0 mi Calm Calm - N/A   Clear
10:55 PM 32.9 °F - 25.9 °F 75% 30.31 in 10.0 mi Calm Calm - N/A   Clear
11:15 PM 34.3 °F - 25.9 °F 71% 30.31 in 10.0 mi Calm Calm - N/A   Clear
11:35 PM 33.6 °F - 26.2 °F 74% 30.31 in 10.0 mi Calm Calm - N/A   Clear
11:55 PM 33.4 °F - 25.7 °F 73% 30.31 in 10.0 mi Calm Calm - N/A   Clear